Change the Weather History Date:

Wednesday, November 2, 2011

  Actual Average Record
Temperature  
Mean Temperature 34 °F 45 °F  
Max Temperature 44 °F 60 °F 79 °F (1964)
Min Temperature 23 °F 30 °F 2 °F (1951)
Degree Days  
Heating Degree Days 30    
Moisture  
Dew Point 29 °F    
Average Humidity 79    
Maximum Humidity 100    
Minimum Humidity 49    
Precipitation  
Precipitation 0.10 in 0.04 in 0.76 in (1998)
Month to date precipitation 0.10 0.08  
Year to date precipitation 19.02 21.02  
Sea Level Pressure  
Sea Level Pressure 30.30 in    
Wind  
Wind Speed 22 mph (North)    
Max Wind Speed 29 mph    
Max Gust Speed 40 mph    
Visibility 8 miles    
Events Rain , Snow    
T = Trace of Precipitation, MM = Missing Value Source: NWS Daily Summary

Daily Weather History Graph

Daily Weather History Graph

Search for Another Location

Airport or City:

Trip Planner

Search our weather history database for the weather conditions in past years. The results will help you decide how hot, cold, wet, or windy it might be!

Date:

Astronomy

Nov. 02, 2011 Rise Set
Actual Time 8:12 AM CDT 6:38 PM CDT
Civil Twilight 7:44 AM CDT 7:06 PM CDT
Nautical Twilight 7:12 AM CDT 7:38 PM CDT
Astronomical Twilight 6:40 AM CDT 8:10 PM CDT
Moon 2:33 PM CDT (11/2) 12:24 AM CDT (11/2)
Length of Visible Light 11h 22m
Length of Day
10h 25m
Waxing Crescent, 50% of the Moon is Illuminated
Nov 2
Waxing Crescent
Nov 10
Full
Nov 18
Last Quarter
Nov 25
New
Dec 2
First Quarter

Hourly Weather History & Observations

Time (CDT) Temp. Windchill Dew Point Humidity Pressure Visibility Wind Dir Wind Speed Gust Speed Precip Events Conditions
12:53 AM 44.1 °F 34.6 °F 30.0 °F 58% 30.06 in 10.0 mi NNE 26.5 mph 33.4 mph N/A   Overcast
1:53 AM 41.0 °F 30.0 °F 30.9 °F 67% 30.10 in 10.0 mi North 28.8 mph 35.7 mph N/A   Overcast
2:53 AM 41.0 °F 30.5 °F 30.9 °F 67% 30.12 in 10.0 mi NNE 26.5 mph 38.0 mph N/A   Overcast
3:53 AM 39.0 °F 27.6 °F 30.9 °F 73% 30.13 in 10.0 mi NNE 27.6 mph 38.0 mph N/A   Overcast
4:50 AM 37.4 °F 25.4 °F 32.0 °F 81% 30.12 in 10.0 mi NNE 27.6 mph 39.1 mph N/A   Overcast
4:53 AM 37.0 °F 25.4 °F 32.0 °F 82% 30.13 in 10.0 mi NNE 25.3 mph 35.7 mph 0.00 in Snow Light Snow
5:53 AM 37.0 °F 25.4 °F 32.0 °F 82% 30.17 in 9.0 mi NNE 25.3 mph 34.5 mph 0.00 in Snow Light Snow
6:53 AM 37.0 °F 24.7 °F 30.9 °F 79% 30.18 in 9.0 mi NNE 28.8 mph 40.3 mph 0.00 in Snow Light Snow
7:00 AM 37.4 °F 26.1 °F 30.2 °F 75% 30.17 in 9.0 mi NNE 24.2 mph 36.8 mph 0.00 in Snow Light Snow
7:53 AM 37.0 °F 24.9 °F 30.9 °F 79% 30.22 in 9.0 mi North 27.6 mph 35.7 mph 0.00 in Snow Light Snow
8:53 AM 35.1 °F 24.5 °F 33.1 °F 92% 30.30 in 4.0 mi North 18.4 mph - 0.00 in Snow Light Snow
9:04 AM 33.8 °F 22.8 °F 32.0 °F 93% 30.27 in 2.0 mi North 18.4 mph - 0.01 in Snow Light Snow
9:11 AM 33.8 °F 23.5 °F 32.0 °F 93% 30.28 in 1.2 mi North 16.1 mph - 0.02 in Snow Light Snow
9:30 AM 33.8 °F 23.5 °F 32.0 °F 93% 30.29 in 1.0 mi North 16.1 mph 25.3 mph 0.04 in Snow Light Snow
9:53 AM 33.1 °F 22.6 °F 32.0 °F 96% 30.34 in 1.5 mi North 16.1 mph - 0.05 in Snow Light Snow
10:05 AM 33.8 °F 23.2 °F 32.0 °F 93% 30.30 in 1.5 mi North 17.3 mph - 0.00 in Snow Light Snow
10:53 AM 33.1 °F 23.0 °F 33.1 °F 100% 30.35 in 2.0 mi North 15.0 mph - 0.01 in Snow Light Snow
11:16 AM 33.8 °F 24.3 °F 33.8 °F 100% 30.31 in 4.0 mi North 13.8 mph - 0.02 in Snow Light Snow
11:53 AM 35.6 °F 26.2 °F 33.8 °F 93% 30.32 in 5.0 mi North 15.0 mph - N/A Rain Light Rain
12:00 PM 35.6 °F 25.9 °F 33.8 °F 93% 30.32 in 5.0 mi North 16.1 mph - 0.00 in Rain Light Rain
12:33 PM 35.6 °F 25.2 °F 33.8 °F 93% 30.32 in 8.0 mi North 18.4 mph - 0.01 in   Overcast
12:53 PM 35.6 °F 25.9 °F 33.8 °F 93% 30.33 in 6.0 mi North 16.1 mph 25.3 mph N/A   Overcast
1:02 PM 35.6 °F 24.5 °F 33.8 °F 93% 30.33 in 9.0 mi North 20.7 mph 27.6 mph 0.00 in   Overcast
1:53 PM 37.0 °F 27.4 °F 30.9 °F 79% 30.38 in 10.0 mi North 17.3 mph 24.2 mph 0.00 in   Overcast
2:53 PM 39.0 °F 30.3 °F 30.0 °F 70% 30.38 in 10.0 mi North 16.1 mph 24.2 mph N/A   Overcast
3:53 PM 39.9 °F 29.7 °F 26.1 °F 58% 30.40 in 10.0 mi North 23.0 mph 28.8 mph N/A   Mostly Cloudy
4:53 PM 41.0 °F 31.4 °F 25.0 °F 53% 30.41 in 10.0 mi North 21.9 mph 26.5 mph N/A   Mostly Cloudy
5:53 PM 39.0 °F 29.3 °F 21.0 °F 49% 30.42 in 10.0 mi NNW 19.6 mph - N/A   Clear
6:53 PM 35.1 °F 25.5 °F 21.0 °F 57% 30.44 in 10.0 mi NNW 15.0 mph - N/A   Clear
7:53 PM 32.0 °F 21.2 °F 19.9 °F 61% 30.46 in 10.0 mi NW 16.1 mph - N/A   Clear
8:53 PM 30.0 °F 19.1 °F 19.9 °F 66% 30.47 in 10.0 mi NW 15.0 mph - N/A   Clear
9:53 PM 28.0 °F 17.5 °F 21.0 °F 75% 30.48 in 10.0 mi NW 12.7 mph - N/A   Clear
10:53 PM 26.1 °F 16.8 °F 21.0 °F 81% 30.48 in 10.0 mi NNW 9.2 mph - N/A   Clear
11:53 PM 24.1 °F 15.2 °F 19.9 °F 84% 30.49 in 10.0 mi West 8.1 mph - N/A   Clear